[[{"header":{"parameterUnit":"m.s-1","parameterCategory":1,"la1":30.2991,"la2":30.254,"lo1":-89.0895,"lo2":-89.0444,"dy":0.0017,"dx":0.0017,"nx":28,"ny":28,"refTime":"2025-03-08T09:00:00:Z","depth":0,"parameterNumber":2,"parameterNumberName":"U-component_of_WINDS"},"data":[0,0,0,0,0,0,0,0,0,0,0,0,0,0,0,0,0,0,0,0,0,0,0,0,0,0,0,0,0,0,0,0,0,0,0,0,0,0,0,0,0,0,0,0,0,0,0,0,0,0,0,0,0,0,0,0,0,0,1.8236,1.8235,0,1.8184,1.8184,1.8183,1.8124,1.8123,1.8122,1.8121,1.8069,1.8068,1.8068,0,0,0,0,0,0,0,0,0,0,0,0,0,1.8284,1.8283,1.8236,1.8235,1.8235,1.8185,1.8184,1.8183,1.8124,1.8123,1.8122,1.8121,1.8069,1.8068,1.8068,0,0,0,0,0,0,0,0,0,0,0,0,0,1.8251,1.8283,1.8236,1.8199,1.8195,1.8185,1.8184,1.8183,1.8124,1.8123,1.8122,1.8121,1.8069,1.8068,1.8067,1.8089,0,0,1.8065,1.8064,0,0,0,0,0,0,0,0,1.8253,1.8249,1.8205,1.8202,1.8197,1.8159,1.8181,1.8151,1.8125,1.8151,1.8121,1.812,1.81,1.8096,1.809,1.8086,1.8084,1.8065,1.8064,1.8064,1.8064,0,0,0,0,0,0,0,1.8255,1.8251,1.8215,1.8205,1.82,1.8186,1.8179,1.8175,1.8134,1.8149,1.8145,1.8139,1.8098,1.8091,1.8088,1.8083,1.8065,1.8064,1.8063,1.8063,1.8097,1.8098,0,0,0,0,0,0,1.8263,1.8253,1.8217,1.8214,1.8222,1.8186,1.8179,1.8173,1.8134,1.8126,1.814,1.8137,1.8093,1.8089,1.8086,1.8109,1.8064,1.8063,1.8063,1.8095,1.8097,1.8098,0,0,0,0,0,0,1.8264,1.826,1.8219,1.8233,1.8226,1.8186,1.818,1.8173,1.8166,1.8127,1.812,1.8141,1.8092,1.8087,1.8089,1.8107,1.8063,1.8062,1.8094,1.8096,1.8098,1.8156,0,0,0,0,0,0,1.8266,1.8261,1.8268,1.8233,1.8226,1.8223,1.8181,1.8173,1.8164,1.8159,1.8126,1.8119,1.809,1.8091,1.8088,1.8105,1.8061,1.8092,1.8095,1.8097,1.8152,1.816,1.8166,0,0,0,0,0,1.8268,1.8287,1.8269,1.8265,1.8234,1.8224,1.822,1.8186,1.8166,1.8173,1.8149,1.812,1.8105,1.8091,1.8088,1.8105,1.8091,1.8094,1.8097,1.8149,1.8158,1.8166,0,0,0,0,0,0,1.8324,1.8281,1.8261,1.8269,1.8251,1.8214,1.8222,1.8197,1.8184,1.8179,1.8138,1.8131,1.8138,1.8121,1.8107,1.8124,1.8094,1.8096,1.8135,1.8143,1.815,1.8154,1.806,0,0,0,0,0,1.8338,1.8333,1.8296,1.8306,1.8298,1.8262,1.8256,1.8232,1.8212,1.8203,1.8179,1.816,1.8151,1.8146,1.8136,1.815,1.8142,1.816,1.8167,1.8173,1.8175,1.8183,1.819,1.8109,1.8109,1.8109,0,0,1.8366,1.8341,1.8341,1.8317,1.83,1.8297,1.8256,1.8253,1.8251,1.8203,1.8203,1.8185,1.8161,1.817,1.8172,1.8156,1.8196,1.8177,1.8182,1.8181,1.8187,1.8195,1.8201,1.8111,1.8111,1.811,0,0,1.8414,1.8395,1.8402,1.8387,1.8361,1.8338,1.834,1.8307,1.8293,1.8293,1.8258,1.8254,1.8239,1.8224,1.8215,1.826,1.8233,1.8258,1.8294,1.8302,1.8308,1.8314,1.8331,1.8337,1.8261,1.8261,1.8261,0,1.8451,1.8445,1.8409,1.841,1.8401,1.8358,1.8366,1.8352,1.8325,1.832,1.8303,1.8284,1.8265,1.827,1.8281,1.8275,1.8276,1.8261,1.831,1.8315,1.832,1.8336,1.8342,1.8264,1.8264,1.8263,1.8263,0,1.8492,1.8488,1.8497,1.8473,1.8465,1.8469,1.8435,1.8431,1.8409,1.8387,1.8388,1.8364,1.8349,1.8348,1.8326,1.8351,1.8341,1.8318,1.8286,1.8332,1.8346,1.8351,1.8269,1.8268,1.8267,1.8266,0,0,1.8574,1.8531,1.8535,1.8524,1.8494,1.8491,1.8494,1.8479,1.8477,1.846,1.8462,1.8452,1.843,1.8419,1.8395,1.8402,1.844,1.8377,1.8376,1.839,1.8467,1.8486,1.8493,1.8423,1.8424,1.8424,1.8469,0,1.8617,1.8619,1.8589,1.8599,1.8596,1.8556,1.8559,1.8541,1.8522,1.8516,1.8494,1.8488,1.8459,1.8453,1.8458,1.8435,1.8455,1.8431,1.8424,1.8424,1.8432,1.85,1.8519,1.8562,1.8475,1.8476,1.8476,0,1.8668,1.8655,1.8666,1.8637,1.8634,1.8637,1.8622,1.8617,1.8597,1.8582,1.8571,1.8544,1.8545,1.8516,1.8518,1.8502,1.8498,1.8486,1.8487,1.8485,1.8453,1.85,1.8575,1.8582,1.8484,1.8484,1.8483,0,1.8727,1.8713,1.8717,1.8709,1.8675,1.8679,1.8665,1.8643,1.8637,1.8624,1.862,1.8607,1.86,1.8591,1.8562,1.8543,1.8567,1.8535,1.8555,1.8556,1.8562,1.8562,1.8638,1.8559,1.8559,1.8559,1.8559,0,1.8779,1.8788,1.8744,1.8747,1.8755,1.872,1.873,1.8712,1.8693,1.8693,1.8658,1.8658,1.8618,1.8614,1.8591,1.8597,1.8594,1.8582,1.8576,1.8585,1.8587,1.8582,1.8578,1.8561,1.856,1.856,1.856,0,1.8847,1.8818,1.882,1.8789,1.8781,1.8789,1.8762,1.8764,1.8743,1.8742,1.874,1.8707,1.87,1.867,1.8656,1.8641,1.8654,1.8642,1.8661,1.8657,1.868,1.8678,1.8755,1.8763,1.8679,1.868,1.8681,0,1.8882,1.8887,1.8857,1.8854,1.8842,1.8838,1.8832,1.8798,1.8793,1.8771,1.8776,1.8767,1.8758,1.875,1.8724,1.8714,1.8701,1.8729,1.8699,1.8709,1.8702,1.8702,1.8703,1.8735,1.8736,1.8737,1.8738,0,1.8948,1.8933,1.8926,1.8914,1.8908,1.8896,1.8883,1.8883,1.8845,1.8842,1.8835,1.8828,1.8815,1.8807,1.8792,1.8778,1.8752,1.8747,1.8751,1.8761,1.8773,1.8767,1.8679,1.8745,1.8745,1.8744,1.8744,1.8743,1.9,1.9004,1.8983,1.8977,1.8963,1.8952,1.8953,1.8932,1.8926,1.8913,1.8893,1.8889,1.887,1.8848,1.8837,1.8834,1.8819,1.8825,1.8826,1.8828,1.8833,1.8773,1.8831,1.8831,1.883,1.883,1.883,0,1.9065,1.905,1.9044,1.9027,1.9022,1.8999,1.8983,1.898,1.8978,1.8962,1.8954,1.8947,1.894,1.8914,1.8904,1.8907,1.8894,1.8905,1.8905,1.8902,1.8847,1.8845,1.8915,1.8915,1.8915,1.8915,1.8915,1.8915,1.9097,1.9103,1.9087,1.9085,1.907,1.9067,1.906,1.905,1.9038,1.9032,1.9025,1.9009,1.899,1.8978,1.897,1.8963,1.8961,1.8976,1.8965,1.8914,1.8906,1.8898,1.8895,1.8976,1.8976,1.902,1.9021,1.9021]},{"header":{"parameterUnit":"m.s-1","parameterCategory":1,"la1":30.2991,"la2":30.254,"lo1":-89.0895,"lo2":-89.0444,"dy":0.0017,"dx":0.0017,"nx":28,"ny":28,"refTime":"2025-03-08T09:00:00:Z","depth":0,"parameterNumber":3,"parameterNumberName":"V-component_of_WINDS"},"data":[0,0,0,0,0,0,0,0,0,0,0,0,0,0,0,0,0,0,0,0,0,0,0,0,0,0,0,0,0,0,0,0,0,0,0,0,0,0,0,0,0,0,0,0,0,0,0,0,0,0,0,0,0,0,0,0,0,0,0.8085,0.8085,0,0.8146,0.8147,0.8147,0.8139,0.8138,0.8137,0.8136,0.8205,0.8208,0.821,0,0,0,0,0,0,0,0,0,0,0,0,0,0.7966,0.7968,0.8085,0.8085,0.8086,0.8146,0.8147,0.8147,0.8139,0.8138,0.8137,0.8136,0.8204,0.8207,0.8211,0,0,0,0,0,0,0,0,0,0,0,0,0,0.8022,0.7969,0.8085,0.8089,0.809,0.8146,0.8147,0.8148,0.814,0.8138,0.8136,0.8135,0.8203,0.8207,0.8211,0.8268,0,0,0.8224,0.8226,0,0,0,0,0,0,0,0,0.8018,0.8026,0.8088,0.8089,0.809,0.8133,0.813,0.8188,0.814,0.8121,0.8136,0.8134,0.8183,0.8188,0.8204,0.8271,0.8274,0.8224,0.8227,0.8229,0.823,0,0,0,0,0,0,0,0.8015,0.8023,0.8109,0.8089,0.809,0.809,0.8096,0.8141,0.816,0.8123,0.8122,0.8129,0.8183,0.82,0.8205,0.8275,0.8224,0.8228,0.8231,0.8232,0.8391,0.8393,0,0,0,0,0,0,0.8009,0.802,0.8107,0.8111,0.805,0.8093,0.81,0.8121,0.8159,0.8164,0.813,0.8128,0.8193,0.82,0.8208,0.8276,0.8229,0.8233,0.8235,0.839,0.8392,0.8394,0,0,0,0,0,0,0.8006,0.8017,0.8105,0.8065,0.8077,0.8097,0.812,0.8123,0.8139,0.8165,0.8169,0.8143,0.8192,0.8202,0.8252,0.8278,0.8234,0.8238,0.8388,0.839,0.8393,0.8413,0,0,0,0,0,0,0.8003,0.8016,0.8036,0.8066,0.8079,0.8147,0.8122,0.8125,0.8146,0.8144,0.8178,0.8183,0.8192,0.8246,0.8256,0.8283,0.8242,0.8386,0.8389,0.8392,0.841,0.8416,0.8421,0,0,0,0,0,0.7999,0.8041,0.8037,0.8048,0.8104,0.8148,0.8156,0.8164,0.8148,0.8169,0.8186,0.8182,0.8273,0.8251,0.8263,0.8291,0.8384,0.8388,0.8392,0.8407,0.8414,0.842,0,0,0,0,0,0,0.8016,0.8045,0.8041,0.8094,0.8118,0.8147,0.8174,0.8171,0.8202,0.8199,0.821,0.8218,0.8269,0.8285,0.826,0.8348,0.8327,0.8333,0.8335,0.8342,0.8347,0.8342,0.8245,0,0,0,0,0,0.8026,0.8057,0.8082,0.8126,0.8138,0.8154,0.8174,0.8177,0.8204,0.8215,0.8235,0.8263,0.8298,0.8321,0.8354,0.8412,0.842,0.8437,0.8443,0.8447,0.8452,0.8484,0.8492,0.8406,0.8406,0.8406,0,0,0.8047,0.8067,0.8086,0.813,0.8149,0.8183,0.8163,0.82,0.8225,0.8221,0.8269,0.8285,0.8317,0.8371,0.8396,0.8386,0.8477,0.8452,0.8455,0.8458,0.8488,0.8496,0.8504,0.8409,0.8409,0.8408,0,0,0.8102,0.812,0.8158,0.8178,0.8206,0.8216,0.8226,0.8254,0.8264,0.8312,0.8309,0.8341,0.8401,0.8423,0.8442,0.8505,0.8502,0.8516,0.8544,0.8574,0.8581,0.8587,0.8609,0.8616,0.8521,0.8521,0.8521,0,0.8125,0.8174,0.8179,0.8216,0.8235,0.823,0.827,0.8289,0.8329,0.8343,0.8331,0.8405,0.8426,0.8485,0.85,0.8516,0.8527,0.8512,0.8579,0.8585,0.8591,0.8612,0.862,0.8523,0.8522,0.8522,0.8522,0,0.8201,0.8235,0.8263,0.8298,0.832,0.8359,0.8371,0.8393,0.8395,0.8407,0.8456,0.8481,0.8519,0.8533,0.8536,0.8593,0.8585,0.8576,0.8556,0.86,0.862,0.8628,0.8525,0.8524,0.8524,0.8523,0,0,0.827,0.8306,0.8316,0.8331,0.8362,0.8389,0.8428,0.8462,0.8482,0.8509,0.8542,0.8592,0.8583,0.8605,0.861,0.8637,0.8684,0.8624,0.8625,0.8634,0.8747,0.8753,0.8762,0.8682,0.8684,0.8685,0.8744,0,0.8327,0.8392,0.8397,0.8456,0.8488,0.8484,0.8517,0.854,0.8552,0.8582,0.8596,0.8631,0.8617,0.863,0.8656,0.8673,0.8707,0.8669,0.8714,0.8715,0.8705,0.8773,0.878,0.8835,0.8752,0.8753,0.8754,0,0.8403,0.843,0.8491,0.8517,0.853,0.856,0.8592,0.862,0.8647,0.8654,0.8677,0.8678,0.8719,0.8696,0.8753,0.8726,0.8745,0.8756,0.8758,0.8763,0.8737,0.8779,0.8853,0.8861,0.8767,0.8766,0.8765,0,0.8446,0.8498,0.8541,0.8555,0.8586,0.8606,0.8621,0.8645,0.8666,0.8695,0.8708,0.8742,0.8761,0.8788,0.8799,0.8781,0.8854,0.8833,0.8862,0.8862,0.8878,0.8876,0.8955,0.889,0.889,0.889,0.889,0,0.851,0.8548,0.856,0.8587,0.8629,0.8636,0.8678,0.8692,0.8714,0.8744,0.8743,0.8772,0.8785,0.8816,0.8825,0.887,0.8879,0.8886,0.8888,0.8886,0.8885,0.8898,0.8895,0.8892,0.8892,0.8891,0.8891,0,0.8565,0.8575,0.8622,0.8646,0.8654,0.8684,0.8706,0.8732,0.8743,0.8781,0.879,0.8809,0.8845,0.8858,0.8904,0.891,0.8961,0.8961,0.8952,0.8952,0.898,0.8977,0.907,0.9082,0.9009,0.901,0.9011,0,0.8605,0.8633,0.866,0.8679,0.8694,0.8725,0.8745,0.8753,0.8774,0.8806,0.8828,0.8864,0.8893,0.8951,0.8969,0.9004,0.9003,0.9033,0.9009,0.9005,0.9003,0.9001,0.9004,0.9038,0.9039,0.904,0.904,0,0.8674,0.8677,0.8705,0.8735,0.8758,0.8783,0.8806,0.8823,0.8834,0.8858,0.8894,0.8916,0.8961,0.8996,0.9031,0.9048,0.9046,0.9047,0.9056,0.9054,0.9047,0.9051,0.8964,0.9045,0.9045,0.9045,0.9044,0.9044,0.8723,0.8748,0.877,0.8801,0.8819,0.8841,0.8866,0.888,0.8909,0.8944,0.8948,0.8986,0.9012,0.9058,0.9076,0.9107,0.91,0.9112,0.9115,0.9118,0.912,0.9042,0.9114,0.9114,0.9114,0.9114,0.9114,0,0.8792,0.8805,0.8834,0.8866,0.889,0.8884,0.891,0.8932,0.8965,0.8988,0.9016,0.9057,0.9091,0.9111,0.9146,0.9167,0.9167,0.9176,0.9174,0.9178,0.9125,0.9114,0.9175,0.9175,0.9175,0.9175,0.9175,0.9175,0.883,0.8871,0.8877,0.8928,0.8942,0.8978,0.8993,0.9013,0.9032,0.9077,0.9104,0.9116,0.9139,0.9175,0.9206,0.9211,0.9224,0.9233,0.9238,0.9188,0.9182,0.9176,0.9165,0.9236,0.9236,0.9288,0.9288,0.9289]}]]